STARLINK-35581

Last updated on Tue Dec 16 2025 00:02:05 GMT+0000 (Coordinated Universal Time)

1 66479U 25262Z 25349.33335648 -.00004766 00000+0 -10686-3 0 9995 2 66479 43.0012 56.0303 0001136 309.8146 105.1395 15.40710906 6051
UTC large
Height (km)
Speed (km/s)
/
Latitude / Longitude
Inclination (degrees)
Orbital Period (minutes)
Azimuth
Elevation
Range (km)
Doppler Factor

Next 0 passes for location: London (51.5072 / 0.1276)

Sorry there are no passes over London.